sat.trackr.live / text

‹ back to catalog

STARLINK-11114 [DTC]

NORAD 59757 · 2024-091E

PAYLOAD ACTIVE UNKNOWN

§ Identity

Operator
Country
US
Launch date
2024-05-14
Launch site
AFWTR
Launch vehicle
Mass (kg)
RCS (m²)

Purposes: comms

External: N2YO · Heavens-Above · Gunter

§ Orbital elements

Epoch: 2026-05-25T02:29:34.170144Z

Period
91.74 min
Inclination
53.1602°
Eccentricity
0.0001055
Mean motion
15.69708563 rev/d
Perigee alt
359.0 km
Apogee alt
360.4 km
Semi-major
6,737.9 km
B*
9.2782e-6
RAAN
189.6956°
Arg perigee
73.0078°
Mean anomaly
287.1056°
Rev number
11,751

§ Raw data

STARLINK-11114 [DTC]1 59757U 24091E   26145.10386771  .00000536  00000+0  92782-5 0  99962 59757  53.1602 189.6956 0001055  73.0078 287.1056 15.69708563117516

JSON: /api/v1/satellites/59757 · /tle

For live sub-satellite position, see the globe view (requires WebGL).

§ Visibility from observer

Set your observer location to see the next 7 days of passes ≥ 10°. The values pass through the URL so the page stays shareable.

No JS? Fill the form by hand. The geolocation button needs JavaScript.